Weather in Liman

Russia / Stavropol Krai     45°44′26″N   43°00′56″E
temp.,
°C
wind,
m/s
gust,
m/s
humid.,
%
clouds,
%
prec.,
mm/h
press.,
hPa
HPBL,
m
6 may, thu
thu600:00+10ese34635 0.0 101754
03:00+9ese34640 0.0 101757
06:00+9se37720 0.0 1017168
09:00+16se710480 0.0 10161241
12:00+19se810407 0.0 10141604
15:00+20se673769 0.0 10141759
18:00+18se475434 0.0 1013175
21:00+13se5126399 0.0 1015253
7 may, fri
fri700:00+12sse61458100 0.0 1015372
03:00+10sse41060100 0.0 1015232
06:00+10sse496424 0.0 1016230
09:00+16s45526 0.0 1016534
12:00+21wsw355523 0.1 10161456
15:00+22wnw564539 0.9 10161968
18:00+19wnw46586 0.0 1017202
21:00+14wsw33662 0.0 101827
8 may, sat
sat800:00+13wsw22695 0.0 101812
03:00+12sw117055 0.0 101710
06:00+13se227244 0.0 101738
09:00+19se355180 0.0 1016636
12:00+23se4544100 0.0 10151581
15:00+24sse5640100 0.0 10131901
18:00+21se4857100 0.0 1013199
21:00+17se4961100 0.0 1013157
9 may, sun
sun900:00+15se6136593 0.0 1011272
03:00+12se4117577 0.0 1009240
06:00+12sse3877100 0.0 1009288
09:00+17wnw7970100 0.0 1010852
12:00+16nw6777100 0.2 1011734
15:00+16w101278100 0.4 1011890
18:00+7w101490100 0.9 1017818
21:00+6wnw81391100 3.1 10201152
10 may, mon
mon1000:00+7w91486100 0.9 1020937
03:00+6w8158899 1.0 1020716
06:00+7w814875 0.0 1020728
09:00+11w9126522 0.1 10191462
12:00+14w81052100 0.4 10182090
15:00+13w9115881 0.6 10181808
18:00+10w7117210 0.1 10181243
21:00+6wsw598489 0.1 1019391